Regional Weather Roundup
Issued by NWS

Home | Current Version | Previous Version | Graphics & Text | Print | Product List | Glossary On
Versions: 1 2 3 4 5 6 7 8 9 10 11 12 13 14 15 16 17 18 19 20 21 22 23 24 25 26 27 28 29 30 31 32 33 34 35 36 37 38 39 40 41 42 43 44 45 46 47 48 49 50
000
ASUS43 KTOP 031959
RWRKS

WEATHER ROUNDUP FOR KANSAS
NATIONAL WEATHER SERVICE GOODLAND KS
300 PM CDT THU SEP 03 2015

NOTE:  "FAIR" INDICATES FEW OR NO CLOUDS BELOW 12,000 FEET WITH NO
SIGNIFICANT WEATHER AND/OR OBSTRUCTIONS TO VISIBILITY.

KSZ001>006-013>018-027>032-041>047-032100-
NORTHWEST KANSAS

CITY           SKY/WX    TMP DP  RH WIND       PRES   REMARKS
GOODLAND       PTSUNNY   97  49  19 SW12      29.84F
HAYS           SUNNY    100  59  25 S29G37    29.79F HX 100
HILL CITY      MOSUNNY  102  57  22 S18G26    29.78F HX 101
RUSSELL        SUNNY     98  59  27 S26G35    29.80F HX  98
$$

KSZ061>065-074>080-084>089-032100-
SOUTHWEST KANSAS

CITY           SKY/WX    TMP DP  RH WIND       PRES   REMARKS
DODGE CITY     PTSUNNY   93  55  27 S26G35    29.86F
ELKHART          N/A     93  55  27 S8          N/A
GARDEN CITY    CLOUDY    93  56  28 S23G29    29.84F
GREAT BEND     SUNNY     99  61  28 S25G33    29.82F HX  99
LIBERAL        PTSUNNY   97  55  24 SW16      29.87F HX  95
$$

KSZ066>073-081>083-090>101-032100-
SOUTHEAST KANSAS

CITY           SKY/WX    TMP DP  RH WIND       PRES   REMARKS
CHANUTE        SUNNY     87  70  56 S16       29.94F
COFFEYVILLE    SUNNY     88  71  57 SW12      29.94F
HUTCHINSON     SUNNY     96  63  33 S21G33    29.86F HX  97
NEWTON         SUNNY     93  63  36 S21G28    29.91F
PARSONS        SUNNY     87  71  58 S10G17    29.95F
WICHITA INTL   PTSUNNY   94  63  35 S20G29    29.87F HX  95
WICHITA JABRA  SUNNY     91  67  44 S20G26    29.89F
WINFIELD       SUNNY     94  65  38 S18G25    29.91F HX  96
$$

KSZ007>012-019>026-033>040-048>060-102>105-032100-
NORTHEAST KANSAS

CITY           SKY/WX    TMP DP  RH WIND       PRES   REMARKS
CONCORDIA      SUNNY     94  63  35 S23G29    29.81F HX  95
EMPORIA        SUNNY     91  65  41 S22G28    29.89F
LAWRENCE       SUNNY     92  67  43 S18       29.89F HX  95
MANHATTAN      SUNNY     96  64  34 S18G29    29.83F HX  98
OLATHE IND     SUNNY     90  69  50 S14G23    29.93F
OLATHE EXE     SUNNY     87  68  52 S13G23    29.92F
SALINA         SUNNY     97  63  32 S22G36    29.82F HX  98
TOPEKA BILLARD SUNNY     92  67  43 S14G24    29.88F HX  95
TOPEKA FORBES  SUNNY     92  69  47 S16G22    29.89F HX  97
$$


USA.gov is the U.S. government's official web portal to all federal, state and local government web resources and services.